LiveATC.Net - Listen to live air traffic control over the Internet!


ICAO: KVAY  IATA: VAY   Airport: South Jersey Regional Airport
City: Mount Holly   State/Province: New Jersey
Country: United States   Continent: North America
KVAY METAR Weather: KVAY 221954Z AUTO 24008KT 10SM CLR 33/18 A2995 RMK AO2 SLP140 T03280178
KVAY Flight Activity (FlightAware)
KVAY Airport Info   (iFlightPlanner)
KVAY VFR Sectional Chart   (iFlightPlanner) 
KVAY IFR Low Altitude Chart   (iFlightPlanner) 
KVAY IFR High Altitude Chart   (iFlightPlanner) 

SNJ Area CTAF 122.8
Feed Status: UP   Listeners: 0
Listen in your browser - HTML5 player (in browser, HTML5)
Click here to listen with your own player (launches your MP3 player)
Archive Access: SNJ Area CTAF 122.8
FacilityFrequency
CTAF122.800

NOTICE

Unauthorized use prohibited. See LiveATC.net Terms of Service


Airport/ARTCC Code
Frequency Search
(e.g., 124.400, 128.75)
Site-wide search
 


Browse Feeds
Top 50 Feeds
HF Oceanic Feeds
Coverage Map
Bad Weather Areas

LiveATC FAQ
Offer LiveATC feed
Contact LiveATC.net
Press Inquiries

LiveATC on iPhone
LiveATC on Android

LiveATC Mobile
(Mobile browser)

ATC Audio Archives
Interesting Recordings

LiveATC Forums


Home Page
About LiveATC.net


Terms of Use
Privacy Policy

AIRMETs/SIGMETs

FAA Airport Status
NAS Status
Arrival Demand


Server Software By:
Icecast.org
Liquidsoap